sat.trackr.live / text

‹ back to catalog

YAM-13

NORAD 68993 · 2026-100P

PAYLOAD ACTIVE UNKNOWN

§ Identity

Operator
Country
US
Launch date
2026-05-03
Launch site
AFWTR
Launch vehicle
Mass (kg)
RCS (m²)

External: N2YO · Heavens-Above · Gunter

§ Orbital elements

Epoch: 2026-09-19T12:47:27.043296Z

Period
96.62 min
Inclination
97.7768°
Eccentricity
0.0001564
Mean motion
14.90439139 rev/d
Perigee alt
595.5 km
Apogee alt
597.7 km
Semi-major
6,974.7 km
B*
1.1187e-4
RAAN
158.4080°
Arg perigee
101.5269°
Mean anomaly
258.6124°
Rev number
2,075

§ Raw data

YAM-131 68993U 26100P   26262.53295189  .00001035  00000+0  11187-3 0  99932 68993  97.7768 158.4080 0001564 101.5269 258.6124 14.90439139 20752

JSON: /api/v1/satellites/68993 · /tle

For live sub-satellite position, see the globe view (requires WebGL).

§ Visibility from observer

Set your observer location to see the next 7 days of passes ≥ 10°. The values pass through the URL so the page stays shareable.

No JS? Fill the form by hand. The geolocation button needs JavaScript.